Wind_Speed
5 6 7 7 6 6 6 6 7 8 9 10 10 10 10 10 10 9 9 9 8 8 7 7 6 6 5 5 5 5 5 5 5 5 5 6 6 6 7 7 7 8 8
5 6 7 7 6 6 6 7 7 8 9 9 10 10 10 10 10 9 9 9 8 7 7 6 6 6 5 5 5 5 5 5 5 5 5 5 5 5 6 7 7 7 8
4 5 6 6 6 6 6 6 7 7 8 9 9 9 10 9 9 9 8 8 7 7 6 6 6 5 5 5 4 4 4 5 5 4 4 4 5 5 6 6 7 7 8
3 3 4 5 6 6 6 6 7 7 7 8 9 9 9 8 8 7 7 7 6 6 6 5 5 5 4 4 4 4 4 4 4 4 4 5 5 6 6 6 6 6 7
3 2 3 4 5 6 6 6 6 6 7 8 8 8 8 7 7 7 6 6 6 6 5 5 5 4 4 4 4 4 3 4 4 4 4 4 5 5 6 6 6 7 7
3 2 2 3 4 5 6 6 7 7 7 7 7 7 7 6 6 6 5 5 5 5 5 5 4 4 4 4 3 3 3 4 4 4 4 4 4 5 5 6 6 6 7
3 2 1 2 3 4 5 6 7 7 7 7 7 6 6 5 5 5 4 4 4 4 4 5 4 4 4 3 3 3 3 3 3 3 4 4 5 5 5 5 6 6 6
3 1 1 2 3 4 5 6 6 7 7 7 7 6 6 5 4 4 4 4 4 4 4 4 4 3 3 3 3 3 3 2 2 3 4 5 5 5 5 6 6 6 6
4 3 3 3 4 5 6 7 7 7 7 7 7 7 6 5 4 3 3 3 3 3 3 3 3 3 3 3 2 2 2 2 2 3 4 4 5 5 5 5 5 6 5
6 5 4 4 5 6 7 8 8 8 8 8 8 7 7 6 4 3 2 2 3 3 3 3 3 3 3 2 2 2 2 2 2 3 3 4 5 5 5 5 5 5 5
7 7 5 5 5 6 7 8 9 9 9 9 8 8 7 6 5 3 2 2 2 3 3 3 2 3 3 2 2 2 1 2 2 2 3 4 5 5 5 5 5 5 5
9 8 7 6 6 7 8 9 9 10 10 10 9 9 8 7 5 4 3 3 2 2 2 2 3 3 3 2 2 2 1 2 2 2 3 3 4 5 5 5 5 5 5
10 9 8 7 7 8 8 9 10 10 10 11 11 10 9 8 7 5 4 3 2 2 2 2 3 3 2 2 2 2 1 1 1 2 2 3 4 4 5 4 4 5 5
12 12 10 9 8 9 9 9 10 11 12 12 12 11 10 9 8 6 5 3 2 2 3 3 2 2 2 2 2 1 1 1 1 1 2 3 3 4 4 4 4 5 5
14 12 11 9 9 10 11 11 11 12 12 12 12 11 11 9 9 8 6 4 3 3 3 3 2 2 2 3 2 1 1 1 1 1 2 2 3 3 3 4 4 5 5
14 12 11 10 10 10 11 12 11 13 13 12 12 12 12 11 10 8 7 5 4 3 3 2 2 2 2 2 2 1 1 1 1 1 1 1 1 3 3 4 4 4 5
14 13 10 9 10 10 10 11 13 13 13 14 13 13 13 12 11 10 8 6 5 4 3 2 2 2 2 2 2 2 2 2 1 1 1 1 1 1 2 2 3 3 4
14 13 11 10 10 9 10 11 13 14 14 14 14 14 13 13 12 11 9 7 6 5 4 3 3 2 2 2 2 2 2 2 2 2 2 2 1 1 1 1 1 2 2
14 12 11 10 9 8 9 10 13 14 14 14 14 14 14 14 13 12 10 8 7 6 5 3 3 2 2 2 2 2 3 3 3 2 2 2 2 2 1 1 0 0 1
13 12 11 9 8 8 9 11 12 14 16 15 15 15 15 15 14 13 11 10 8 7 5 4 3 2 2 2 2 2 3 3 2 2 2 2 2 2 2 1 1 1 1
12 11 10 9 7 7 9 11 12 14 15 15 15 15 15 15 15 13 12 11 10 8 7 5 4 3 3 2 2 2 2 2 2 1 1 1 1 2 2 1 1 1 1
11 11 9 8 7 7 9 11 13 14 15 15 15 15 16 16 15 14 12 11 11 9 8 6 5 4 3 3 3 2 2 1 1 1 1 1 1 0 1 2 2 2 1
11 10 9 8 7 7 9 11 12 13 14 14 15 16 17 17 16 15 13 13 12 10 9 8 6 5 4 4 4 3 2 2 1 1 2 2 1 1 1 2 2 2 2
11 10 9 8 6 7 8 10 11 12 14 15 16 17 17 17 17 16 15 14 13 11 10 9 8 7 6 6 5 5 4 3 2 2 2 2 2 2 2 3 3 3 3
10 10 9 8 6 6 8 9 10 12 14 16 16 17 18 18 17 17 16 15 14 13 12 11 9 8 7 7 7 6 6 5 4 4 4 3 3 3 3 4 4 4 4
10 9 8 7 6 6 7 9 10 11 14 15 17 18 18 18 18 17 17 16 15 15 13 12 11 10 9 9 9 8 7 7 7 6 6 5 5 5 5 5 5 6 6
Wind_Direction
146 151 150 150 146 145 146 144 140 136 131 122 113 106 102 98 95 93 91 90 88 86 87 90 90 92 95 95 96 100 103 110 115 118 118 123 121 122 122 118 119 122 122
131 146 151 154 154 155 155 152 146 139 133 124 116 110 104 99 96 93 90 89 88 88 88 90 92 94 95 97 100 102 108 114 115 117 119 127 131 129 126 123 124 126 126
114 141 153 157 162 163 162 160 154 144 135 129 122 115 108 101 96 92 89 87 86 86 88 88 92 95 97 100 104 105 111 119 120 118 123 131 136 134 134 130 129 129 129
97 140 155 164 171 173 171 165 160 154 143 135 127 119 113 105 98 94 90 84 87 86 85 84 90 96 99 103 105 105 114 125 126 128 132 135 140 139 136 136 136 135 134
74 118 154 169 177 179 177 170 165 161 151 141 133 126 119 111 103 97 93 88 86 83 81 81 89 97 100 105 109 113 118 127 130 139 146 143 145 147 142 141 144 145 142
63 90 134 172 182 187 185 181 175 169 160 151 143 133 125 117 108 100 98 94 87 80 78 79 90 98 101 103 108 117 121 134 138 146 155 157 155 153 147 147 151 153 152
52 78 119 195 201 200 197 194 186 178 172 163 154 146 137 128 115 105 99 95 89 85 83 81 89 99 105 106 101 110 125 142 159 161 166 165 167 167 163 158 159 161 160
26 359 280 247 230 221 209 203 196 190 183 174 166 161 154 141 127 114 103 94 88 89 82 81 84 94 105 111 110 114 128 146 162 177 177 174 174 177 175 168 169 171 167
9 338 292 261 248 233 221 213 207 201 194 184 178 176 169 158 143 126 110 92 85 82 78 80 80 85 92 100 110 122 133 153 167 171 181 187 185 182 176 173 178 183 178
358 341 316 281 258 243 229 219 215 210 203 192 185 183 178 171 159 142 120 100 94 86 85 85 78 82 88 92 97 104 124 148 169 182 188 189 187 187 183 182 187 185 186
349 337 312 285 271 248 237 226 219 212 204 196 190 188 187 183 173 160 143 127 113 96 90 86 75 77 85 88 90 100 122 144 166 187 199 195 193 194 193 192 195 198 198
334 328 310 293 273 252 243 233 224 216 209 202 195 193 193 190 185 178 165 150 132 103 90 87 84 83 83 90 97 103 118 137 179 203 209 201 198 200 202 200 203 205 211
329 321 307 290 272 251 246 242 227 219 215 209 203 200 198 194 190 187 175 160 143 114 102 101 99 91 89 91 91 108 116 132 172 202 197 200 203 209 211 212 208 208 216
323 316 304 285 268 252 249 247 230 221 217 210 208 206 202 198 193 191 182 169 152 129 121 115 101 92 93 98 98 104 122 124 156 186 194 203 211 217 218 219 214 216 219
320 313 307 293 268 255 247 242 229 221 215 212 211 208 205 201 197 194 187 177 163 144 134 123 109 95 91 101 105 113 139 156 182 195 211 207 211 216 221 225 227 227 222
322 314 303 291 274 258 250 237 225 218 215 214 212 209 208 206 203 197 190 184 174 162 150 132 117 112 104 100 104 114 126 155 165 181 201 191 210 214 221 230 235 234 229
319 314 302 281 274 258 246 236 224 218 214 214 212 210 211 210 207 201 194 189 181 175 161 147 127 113 105 100 105 114 120 128 146 146 129 138 163 187 212 234 251 249 238
317 312 304 280 268 252 243 231 219 214 212 212 211 210 213 213 210 205 200 195 188 179 169 158 137 124 115 107 109 112 121 129 140 131 119 120 125 141 174 231 258 258 257
320 317 304 283 262 253 246 225 215 211 210 210 210 211 210 209 206 204 200 196 193 187 180 170 150 135 122 113 113 117 124 124 122 116 109 112 108 93 90 87 39 309 279
323 318 310 297 270 252 236 221 214 213 211 211 209 207 205 202 201 203 203 200 196 191 184 177 168 150 139 124 119 125 126 122 119 116 112 104 92 83 71 64 58 24 341
323 319 309 298 273 248 233 218 211 210 210 210 207 205 201 199 200 203 204 201 198 194 192 190 181 168 153 143 137 136 138 135 132 126 127 120 94 77 56 46 36 7 356
323 321 318 310 280 258 232 223 212 209 209 207 205 203 203 203 204 205 206 202 199 198 199 198 194 188 178 169 163 162 159 160 172 176 163 150 129 73 34 22 7 348 343
321 314 314 310 291 260 229 226 219 214 212 209 207 204 206 208 207 206 205 203 201 201 203 203 201 200 199 195 195 198 206 215 224 230 223 222 238 283 306 330 335 330 316
320 317 313 313 291 261 239 223 217 219 216 214 212 210 208 208 209 208 205 205 204 205 207 208 208 206 210 213 215 215 217 222 229 226 230 236 248 271 290 302 307 307 306
320 318 318 317 298 270 246 227 222 224 220 220 217 213 209 209 211 211 208 208 208 210 211 212 214 217 222 225 226 225 227 231 236 237 237 244 255 267 279 288 290 293 297
318 318 316 312 302 277 244 233 230 228 223 219 215 213 211 211 213 213 211 212 212 213 214 216 218 222 227 230 232 233 236 238 241 243 246 252 261 268 273 278 281 286 289
Height
5890 5890 5891 5892 5892 5893 5894 5894 5895 5895 5895 5895 5895 5895 5895 5896 5896 5896 5896 5896 5896 5896 5896 5896 5896 5896 5896 5896 5896 5896 5895 5895 5895 5895 5895 5895 5895 5895 5894 5895 5895 5895 5895
5890 5890 5891 5892 5893 5893 5894 5895 5895 5895 5895 5895 5896 5896 5896 5896 5896 5896 5896 5896 5896 5896 5896 5896 5896 5896 5896 5896 5896 5896 5896 5896 5896 5896 5896 5896 5896 5896 5895 5896 5896 5896 5897
5890 5890 5891 5892 5893 5894 5894 5895 5895 5895 5896 5896 5896 5896 5896 5896 5897 5897 5897 5897 5897 5897 5897 5897 5896 5897 5896 5896 5896 5896 5896 5896 5896 5896 5896 5896 5896 5897 5896 5897 5897 5897 5898
5890 5890 5891 5892 5893 5894 5894 5895 5895 5895 5896 5896 5896 5897 5897 5897 5897 5897 5897 5897 5897 5897 5897 5897 5897 5897 5897 5896 5896 5896 5896 5896 5897 5897 5897 5897 5897 5897 5898 5898 5898 5898 5899
5890 5891 5891 5892 5893 5893 5894 5895 5895 5896 5896 5896 5897 5897 5897 5897 5897 5898 5898 5897 5897 5897 5897 5897 5897 5897 5897 5897 5896 5896 5897 5897 5897 5897 5897 5897 5898 5898 5898 5899 5899 5899 5900
5891 5891 5891 5891 5892 5893 5894 5894 5895 5895 5896 5896 5897 5897 5897 5897 5897 5898 5898 5898 5897 5897 5897 5897 5897 5897 5897 5897 5897 5897 5897 5897 5898 5898 5898 5898 5898 5898 5899 5899 5900 5900 5900
5891 5891 5891 5891 5892 5892 5893 5894 5894 5895 5896 5896 5897 5897 5897 5897 5898 5898 5898 5898 5897 5897 5897 5897 5897 5897 5897 5897 5897 5897 5897 5897 5898 5898 5898 5898 5899 5899 5899 5900 5900 5901 5901
5891 5890 5890 5891 5891 5892 5892 5893 5894 5894 5895 5896 5896 5897 5897 5897 5898 5898 5898 5898 5897 5897 5897 5897 5897 5897 5897 5897 5897 5897 5897 5897 5898 5898 5898 5899 5899 5899 5900 5900 5901 5901 5902
5890 5890 5889 5889 5890 5890 5891 5892 5893 5894 5894 5895 5896 5897 5897 5897 5897 5898 5898 5898 5897 5897 5897 5897 5897 5897 5897 5897 5897 5897 5897 5898 5898 5898 5898 5899 5899 5899 5900 5900 5901 5901 5902
5890 5889 5888 5888 5888 5889 5890 5890 5891 5892 5893 5894 5895 5896 5896 5897 5897 5897 5897 5897 5897 5897 5897 5897 5897 5897 5897 5897 5897 5898 5897 5897 5898 5898 5898 5898 5899 5899 5900 5900 5901 5902 5902
5889 5888 5888 5887 5887 5887 5888 5889 5890 5891 5892 5893 5894 5895 5896 5896 5897 5897 5897 5897 5897 5897 5897 5897 5897 5897 5897 5897 5897 5897 5898 5897 5898 5898 5898 5898 5899 5899 5900 5900 5901 5902 5902
5888 5887 5886 5886 5885 5885 5886 5887 5888 5889 5890 5891 5893 5894 5895 5896 5896 5896 5897 5897 5897 5897 5897 5897 5897 5897 5897 5897 5897 5897 5897 5897 5897 5898 5898 5898 5899 5899 5899 5900 5901 5901 5902
5887 5885 5885 5884 5883 5883 5883 5884 5886 5887 5889 5890 5891 5892 5894 5895 5895 5896 5896 5897 5897 5897 5897 5897 5897 5897 5897 5897 5897 5897 5897 5897 5897 5898 5898 5898 5899 5899 5899 5900 5900 5901 5901
5885 5883 5882 5882 5881 5881 5881 5882 5883 5885 5887 5888 5890 5891 5893 5894 5895 5895 5896 5896 5897 5897 5897 5897 5897 5897 5897 5897 5897 5897 5897 5897 5897 5897 5897 5898 5898 5898 5899 5899 5900 5900 5901
5883 5882 5880 5879 5879 5879 5879 5880 5881 5883 5885 5887 5888 5890 5892 5893 5894 5895 5895 5896 5897 5897 5897 5897 5898 5898 5897 5897 5897 5897 5897 5897 5897 5897 5897 5897 5898 5898 5898 5899 5899 5899 5900
5881 5879 5877 5876 5876 5876 5877 5878 5879 5881 5883 5885 5887 5889 5891 5892 5893 5894 5895 5896 5896 5897 5897 5898 5898 5898 5898 5897 5897 5897 5897 5897 5897 5897 5897 5897 5897 5898 5898 5898 5899 5899 5899
5878 5876 5874 5873 5874 5874 5874 5875 5877 5879 5881 5883 5885 5887 5889 5891 5892 5893 5895 5895 5896 5897 5897 5897 5898 5898 5898 5898 5897 5897 5897 5897 5897 5897 5897 5897 5897 5898 5898 5898 5898 5898 5898
5876 5874 5872 5871 5871 5871 5871 5872 5874 5876 5879 5881 5883 5885 5887 5889 5891 5892 5894 5895 5896 5897 5897 5898 5898 5898 5898 5898 5898 5898 5898 5897 5898 5898 5898 5898 5898 5897 5897 5898 5898 5898 5898
5874 5871 5869 5868 5868 5869 5869 5870 5872 5875 5877 5879 5881 5883 5885 5888 5889 5891 5893 5894 5895 5896 5897 5898 5898 5898 5898 5898 5898 5898 5898 5898 5898 5898 5898 5898 5898 5898 5897 5897 5897 5897 5898
5872 5870 5868 5867 5867 5867 5867 5869 5871 5873 5875 5877 5879 5881 5883 5886 5888 5890 5892 5893 5895 5896 5897 5897 5898 5898 5898 5898 5898 5898 5898 5898 5898 5898 5898 5898 5898 5898 5898 5898 5897 5897 5897
5871 5868 5867 5866 5865 5865 5866 5867 5869 5871 5873 5875 5877 5879 5882 5884 5887 5889 5891 5893 5894 5895 5896 5897 5898 5898 5898 5898 5899 5899 5899 5898 5899 5899 5899 5899 5899 5898 5898 5898 5898 5898 5897
5869 5867 5865 5865 5864 5864 5865 5866 5867 5869 5871 5873 5875 5878 5880 5883 5885 5888 5890 5891 5893 5894 5895 5896 5897 5898 5898 5898 5899 5899 5899 5899 5899 5899 5899 5899 5899 5899 5898 5898 5898 5897 5897
5868 5866 5865 5863 5862 5862 5863 5864 5865 5867 5869 5872 5874 5876 5879 5881 5884 5886 5888 5890 5892 5893 5894 5895 5896 5897 5898 5898 5898 5899 5899 5899 5899 5899 5899 5899 5899 5899 5898 5898 5898 5897 5897
5866 5865 5863 5861 5860 5860 5861 5862 5863 5865 5867 5869 5872 5874 5876 5879 5882 5884 5886 5888 5890 5892 5893 5894 5895 5896 5897 5897 5898 5898 5898 5898 5898 5899 5899 5898 5898 5898 5898 5898 5897 5897 5897
5865 5864 5862 5860 5860 5859 5860 5860 5862 5863 5865 5867 5869 5872 5875 5877 5880 5882 5884 5886 5888 5890 5891 5893 5894 5895 5896 5896 5897 5897 5897 5897 5898 5898 5898 5898 5898 5898 5898 5897 5897 5897 5896
5864 5862 5861 5859 5859 5858 5858 5859 5860 5861 5863 5865 5867 5870 5873 5875 5878 5880 5882 5884 5886 5888 5889 5891 5892 5893 5894 5895 5896 5896 5896 5897 5897 5897 5897 5897 5897 5897 5897 5896 5896 5896 5895